| time (UTC) | temp C | wind direction | speed KPH | gust KPH | rain 1hr cm | rain 24hr cm | rain mn cm | humidity % | barometer mb |
| 20260506201556 | 18 | 0.0 | 0.0 | 0.00 | 0.15 | 0.00 | 79 | 1006.4 | |
| 20260506200038 | 18 | 0.0 | 0.0 | 0.00 | 0.15 | 0.00 | 80 | 1006.7 | |
| 20260506194528 | 18 | 0.0 | 0.0 | 0.00 | 0.15 | 0.00 | 80 | 1006.9 | |
| 20260506193005 | 18 | 0.0 | 0.0 | 0.00 | 0.15 | 0.00 | 80 | 1007.2 | |
| 20260506191502 | 18 | 0.0 | 0.0 | 0.00 | 0.15 | 0.00 | 80 | 1007.2 | |
| 20260506190042 | 18 | 0.0 | 0.0 | 0.00 | 0.15 | 0.00 | 79 | 1007.4 | |
| 20260506184544 | 18 | 0.0 | 0.0 | 0.00 | 0.15 | 0.00 | 79 | 1007.3 | |
| 20260506183014 | 17 | 0.0 | 0.0 | 0.00 | 0.15 | 0.00 | 80 | 1007.4 | |
| 20260506181509 | 17 | 0.0 | 0.0 | 0.00 | 0.15 | 0.15 | 81 | 1007.5 | |
| 20260506180049 | 17 | 0.0 | 0.0 | 0.00 | 0.15 | 0.15 | 82 | 1007.7 | |
| 20260506174544 | 18 | 0.0 | 0.0 | 0.00 | 0.15 | 0.15 | 81 | 1007.9 | |
| 20260506173030 | 18 | 0.0 | 0.0 | 0.03 | 0.15 | 0.15 | 83 | 1007.8 | |
| 20260506171519 | 18 | 0.0 | 0.0 | 0.05 | 0.15 | 0.15 | 87 | 1007.5 | |
| 20260506170056 | 17 | 0.0 | 0.0 | 0.08 | 0.15 | 0.15 | 88 | 1007.7 | |
| 20260506164559 | 17 | 0.0 | 0.0 | 0.13 | 0.15 | 0.15 | 88 | 1007.9 | |
| 20260506163039 | 17 | 0.0 | 0.0 | 0.13 | 0.13 | 0.13 | 86 | 1008.6 | |
| 20260506161532 | 17 | 0.0 | 0.0 | 0.10 | 0.10 | 0.10 | 84 | 1009.1 | |
| 20260506160027 | 17 | 0.0 | 0.0 | 0.05 | 0.05 | 0.05 | 82 | 1009.2 | |
| 20260506154523 | 18 | 0.0 | 0.0 | 0.03 | 0.03 | 0.03 | 77 | 1009.4 | |
| 20260506153017 | 19 | 0.0 | 0.0 | 0.00 | 0.00 | 0.00 | 69 | 1009.1 | |
| 20260506151514 | 20 | 0.0 | 0.0 | 0.00 | 0.00 | 0.00 | 67 | 1009.0 | |
| 20260506150010 | 20 | 0.0 | 0.0 | 0.00 | 0.00 | 0.00 | 67 | 1009.1 | |
| 20260506144505 | 20 | 0.0 | 0.0 | 0.00 | 0.00 | 0.00 | 65 | 1009.2 | |
| 20260506143045 | 20 | 0.0 | 0.0 | 0.00 | 0.00 | 0.00 | 65 | 1009.2 | |
| 20260506141540 | 20 | 0.0 | 0.0 | 0.00 | 0.00 | 0.00 | 66 | 1009.3 | |
| 20260506140018 | 20 | 0.0 | 0.0 | 0.00 | 0.00 | 0.00 | 67 | 1009.2 | |
| 20260506134514 | 20 | 0.0 | 0.0 | 0.00 | 0.00 | 0.00 | 67 | 1009.2 | |
| 20260506133052 | 20 | 0.0 | 0.0 | 0.00 | 0.00 | 0.00 | 67 | 1009.3 | |
| 20260506131553 | 20 | 0.0 | 0.0 | 0.00 | 0.00 | 0.00 | 68 | 1009.4 | |
| 20260506130026 | 19 | 0.0 | 0.0 | 0.00 | 0.00 | 0.00 | 69 | 1009.3 | |
| 20260506124522 | 19 | 0.0 | 0.0 | 0.00 | 0.00 | 0.00 | 68 | 1009.3 | |
| 20260506123001 | 18 | 0.0 | 0.0 | 0.00 | 0.00 | 0.00 | 71 | 1009.1 | |
| 20260506121557 | 18 | 0.0 | 0.0 | 0.00 | 0.00 | 0.00 | 72 | 1009.3 | |
| 20260506120036 | 18 | 0.0 | 0.0 | 0.00 | 0.00 | 0.00 | 72 | 1009.3 | |
| 20260506114534 | 18 | 0.0 | 0.0 | 0.00 | 0.00 | 0.00 | 72 | 1009.5 | |
| 20260506113010 | 18 | 0.0 | 0.0 | 0.00 | 0.00 | 0.00 | 73 | 1009.7 | |
| 20260506111505 | 18 | 0.0 | 0.0 | 0.00 | 0.00 | 0.00 | 74 | 1009.4 | |
| 20260506110053 | 17 | 0.0 | 0.0 | 0.00 | 0.00 | 0.00 | 75 | 1009.4 | |
| 20260506104548 | 17 | 0.0 | 0.0 | 0.00 | 0.00 | 0.00 | 76 | 1009.4 | |
| 20260506103020 | 17 | 0.0 | 0.0 | 0.00 | 0.00 | 0.00 | 77 | 1009.2 | |
| 20260506101522 | 17 | 0.0 | 0.0 | 0.00 | 0.00 | 0.00 | 77 | 1009.3 | |
| 20260506100121 | 17 | 0.0 | 0.0 | 0.00 | 0.00 | 0.00 | 77 | 1009.2 | |
| 20260506094550 | 17 | 0.0 | 0.0 | 0.00 | 0.00 | 0.00 | 77 | 1009.1 | |
| 20260506093048 | 17 | 0.0 | 0.0 | 0.00 | 0.00 | 0.00 | 77 | 1009.1 | |
| 20260506091522 | 17 | 0.0 | 0.0 | 0.00 | 0.00 | 0.00 | 78 | 1009.2 | |
| 20260506090018 | 17 | 0.0 | 0.0 | 0.00 | 0.00 | 0.00 | 78 | 1009.3 | |
| 20260506084622 | 17 | 0.0 | 0.0 | 0.00 | 0.00 | 0.00 | 78 | 1009.3 | |
| 20260506083054 | 17 | 0.0 | 0.0 | 0.00 | 0.00 | 0.00 | 78 | 1009.4 | |
| 20260506081539 | 17 | 0.0 | 0.0 | 0.00 | 0.00 | 0.00 | 77 | 1009.4 | |
| 20260506073001 | 18 | 0.0 | 0.0 | 0.00 | 0.00 | 0.00 | 75 | 1009.5 | |
| 20260506071539 | 18 | 0.0 | 0.0 | 0.00 | 0.00 | 0.00 | 75 | 1009.5 | |
| 20260506061548 | 18 | 0.0 | 0.0 | 0.00 | 0.00 | 0.00 | 72 | 1009.7 | |
| 20260506044608 | 19 | 0.0 | 0.0 | 0.00 | 0.00 | 0.00 | 67 | 1010.3 | |
| 20260506043028 | 20 | 0.0 | 0.0 | 0.00 | 0.00 | 0.00 | 66 | 1010.2 | |
| 20260506041505 | 20 | 0.0 | 0.0 | 0.00 | 0.00 | 0.00 | 65 | 1010.3 | |
| 20260506040001 | 20 | 0.0 | 0.0 | 0.00 | 0.00 | 0.00 | 64 | 1010.1 | |
| 20260506034605 | 20 | 0.0 | 0.0 | 0.00 | 0.00 | 0.00 | 64 | 1010.1 | |
| 20260506033037 | 20 | 0.0 | 0.0 | 0.00 | 0.00 | 0.00 | 63 | 1010.0 | |
| 20260506031516 | 20 | 0.0 | 0.0 | 0.00 | 0.00 | 0.00 | 62 | 1010.1 | |
| 20260506030010 | 20 | 0.0 | 0.0 | 0.00 | 0.00 | 0.00 | 61 | 1010.1 | |
| 20260506024549 | 20 | 0.0 | 0.0 | 0.00 | 0.00 | 0.00 | 60 | 1010.1 | |
| 20260506023103 | 21 | 0.0 | 0.0 | 0.00 | 0.00 | 0.00 | 59 | 1010.2 | |
| 20260506021523 | 21 | 0.0 | 0.0 | 0.00 | 0.00 | 0.00 | 58 | 1010.1 | |
| 20260506020018 | 21 | 0.0 | 0.0 | 0.00 | 0.00 | 0.00 | 58 | 1010.1 | |
| 20260506014558 | 21 | 0.0 | 0.0 | 0.00 | 0.00 | 0.00 | 57 | 1010.1 | |
| 20260506013054 | 21 | 0.0 | 0.0 | 0.00 | 0.00 | 0.00 | 57 | 1009.9 | |
| 20260506011532 | 21 | 0.0 | 0.0 | 0.00 | 0.00 | 0.00 | 55 | 1009.8 | |
| 20260506010027 | 22 | 0.0 | 0.0 | 0.00 | 0.00 | 0.00 | 54 | 1009.7 | |
| 20260506004508 | 22 | 0.0 | 0.0 | 0.00 | 0.00 | 0.00 | 50 | 1009.5 | |
| 20260506003001 | 23 | 0.0 | 0.0 | 0.00 | 0.00 | 0.00 | 45 | 1009.3 | |
| 20260506001541 | 23 | 0.0 | 0.0 | 0.00 | 0.00 | 0.00 | 43 | 1009.0 | |
| 20260506000036 | 24 | 0.0 | 0.0 | 0.00 | 0.00 | 0.00 | 41 | 1008.9 | |
| 20260505234524 | 25 | 0.0 | 0.0 | 0.00 | 0.00 | 0.00 | 40 | 1008.7 | |
| 20260505233011 | 25 | 0.0 | 0.0 | 0.00 | 0.00 | 0.00 | 40 | 1008.6 | |
| 20260505231548 | 25 | 0.0 | 0.0 | 0.00 | 0.00 | 0.00 | 39 | 1008.5 | |
| 20260505230045 | 26 | 0.0 | 0.0 | 0.00 | 0.00 | 0.00 | 37 | 1008.4 | |
| 20260505224528 | 26 | 0.0 | 0.0 | 0.00 | 0.00 | 0.00 | 35 | 1008.2 | |
| 20260505223022 | 26 | 0.0 | 0.0 | 0.00 | 0.00 | 0.00 | 33 | 1008.0 | |
| 20260505221520 | 27 | 0.0 | 0.0 | 0.00 | 0.00 | 0.00 | 31 | 1008.2 | |
| 20260505220023 | 27 | 0.0 | 0.0 | 0.00 | 0.00 | 0.00 | 30 | 1007.8 | |
| 20260505214512 | 27 | 0.0 | 0.0 | 0.00 | 0.00 | 0.00 | 29 | 1007.8 | |
| 20260505213005 | 28 | 0.0 | 0.0 | 0.00 | 0.00 | 0.00 | 29 | 1007.9 | |
| 20260505211502 | 28 | 0.0 | 0.0 | 0.00 | 0.00 | 0.00 | 27 | 1007.8 | |
| 20260505210056 | 28 | 0.0 | 0.0 | 0.00 | 0.00 | 0.00 | 26 | 1007.7 | |
| 20260505204536 | 29 | 0.0 | 0.0 | 0.00 | 0.00 | 0.00 | 26 | 1007.5 | |
| 20260505203031 | 30 | 0.0 | 0.0 | 0.00 | 0.00 | 0.00 | 28 | 1007.6 |